Regional Weather Roundup
Issued by NWS

Home | Current Version | Previous Version | Graphics & Text | Print | Product List | Glossary On
Versions: 1 2 3 4 5 6 7 8 9 10 11 12 13 14 15 16 17 18 19 20 21 22 23 24 25 26 27 28 29 30 31 32 33 34 35 36 37 38 39 40 41 42 43 44 45 46 47 48 49 50
000
ASUS43 KMKX 261700
RWRWI

WISCONSIN REGIONAL WEATHER ROUNDUP
NATIONAL WEATHER SERVICE MILWAUKEE/SULLIVAN WI
1200 PM CDT SAT JUL 26 2014

NOTE: "FAIR" INDICATES FEW OR NO CLOUDS BELOW 12,000 FEET WITH NO
SIGNIFICANT WEATHER AND/OR OBSTRUCTIONS TO VISIBILITY.

WIZ001-002-006>008-014>016-023>028-261800-
NORTHWEST WISCONSIN

CITY           SKY/WX    TMP DP  RH WIND       PRES   REMARKS
SUPERIOR ARPT  SUNNY     79  57  46 W5        29.77S HX  80
ASHLAND        SUNNY     79  56  45 NW12G17   29.78S HX  80
HAYWARD        SUNNY     79  54  41 VRB6      29.82R
SIREN          SUNNY     80  56  44 NE3       29.81R HX  80
RICE LAKE      SUNNY     80  54  41 N7        29.82F HX  80
LADYSMITH      SUNNY     80  57  44 W8        29.84R HX  80
EAU CLAIRE     NOT AVBL
MENOMONIE      MOSUNNY   81  63  54 SW3       29.82S HX  82
NEW RICHMOND   MOSUNNY   80  60  51 SW3       29.83R HX  80
OSCEOLA        SUNNY     80  60  50 SW6       29.84S HX  80
$$

WIZ003>005-009-010-017-018-261800-
NORTH CENTRAL WISCONSIN

CITY           SKY/WX    TMP DP  RH WIND       PRES   REMARKS
WOODRUFF       MOSUNNY   80  64  59 NW8       29.80S HX  81
RHINELANDER    MOSUNNY   77  62  59 W14       29.80F
EAGLE RIVER    PTSUNNY   75  64  69 W12       29.78F
LAND O LAKES   MOSUNNY   77  56  48 NW12G17   29.79S
PHILLIPS       MOSUNNY   77  61  58 NW7       29.81R
TOMAHAWK       MOSUNNY   76  65  67 W9        29.81F
MEDFORD        MOSUNNY   76  66  73 W7        29.82S
MERRILL        PTSUNNY   77  68  75 W7        29.80F
$$

WIZ029-030-035-036-043>047-261800-
CENTRAL WISCONSIN

CITY           SKY/WX    TMP DP  RH WIND       PRES   REMARKS
WAUSAU         MOSUNNY   77  67  71 W14       29.80F
MOSINEE        CLOUDY    73  72  94 W6        29.83F FOG
MARSHFIELD     PTSUNNY   77  68  73 NW9       29.82F
STEVENS POINT  CLOUDY    71  65  83 W6        29.83S
WAUPACA        MOSUNNY   82  68  62 CALM      29.79F HX  84
WAUTOMA        MOSUNNY   79  68  69 SW6       29.81F HX  81
WISC RAPIDS    CLOUDY    75  67  76 W8        29.83S
CAMP DOUGLAS   PTSUNNY   75  72  88 NW6       29.82S
$$

WIZ011>013-019>022-031-037>040-048>050-261800-
NORTHEAST WISCONSIN

CITY           SKY/WX    TMP DP  RH WIND       PRES   REMARKS
ANTIGO         CLOUDY    74  67  79 W9        29.81F
STURGEON BAY   CLOUDY    70  64  83 SW10      29.79F
GREEN BAY      CLOUDY    74  67  78 SW6       29.79F
MANITOWOC      NOT AVBL
APPLETON       PTSUNNY   73  64  73 SW17      29.81F
CLINTONVILLE   CLOUDY    77  64  65 NW7       29.79F
OSHKOSH        CLOUDY    75  67  76 VRB6      29.80F
$$

WIZ032>034-041-042-053>061-261800-
SOUTHWEST WISCONSIN

CITY           SKY/WX    TMP DP  RH WIND       PRES   REMARKS
LA CROSSE      CLOUDY    75  68  78 NW3       29.82F
SPARTA         CLOUDY    75  67  74 W6        29.83R
VIROQUA        CLOUDY    74  71  90 CALM      29.84F
BOSCOBEL       CLOUDY    77  67  71 VRB7      29.81F
PRAIRIE DU CHI CLOUDY    73  64  73 SE3       29.81F
PLATTEVILLE    FAIR      76  68  77 E6        29.82F
$$

WIZ056-057-062-063-064-067-068-261800-
SOUTH CENTRAL WISCONSIN

CITY           SKY/WX    TMP DP  RH WIND       PRES   REMARKS
BARABOO/DELLS  CLOUDY    75  65  70 CALM      29.82F
LONE ROCK      CLOUDY    76  67  73 CALM      29.83S
WATERTOWN      CLOUDY    74  66  75 W6        29.84F
MADISON        CLOUDY    77  66  68 SW6       29.84F
MIDDLETON      FAIR      76  65  67 W5        29.84F
MONROE         PTSUNNY   77  66  69 E5        29.83F
JANESVILLE     MOSUNNY   79  64  61 N6        29.84F HX  81
$$

WIZ051-052-058>065-066-070>072-261800-
SOUTHEAST WISCONSIN

CITY           SKY/WX    TMP DP  RH WIND       PRES   REMARKS
MILWAUKEE      PTSUNNY   74  62  66 SE12      29.82F
WAUKESHA       CLOUDY    73  61  64 SW6       29.83F
MILWAUKEE/TIMM NOT AVBL
RACINE         MOSUNNY   73  62  68 SE7       29.87F
BURLINGTON     PTSUNNY   75  64  69 W3        29.85F
KENOSHA        CLOUDY    76  65  68 CALM      29.86F
FOND DU LAC    CLOUDY    77  66  68 SW8       29.82F
SHEBOYGAN      CLOUDY    76  66  71 W6        29.81F
WEST BEND      CLOUDY    73  61  64 W5        29.83F
JUNEAU         CLOUDY    74  63  69 SW3       29.84F
$$

LSZ147-162-261800-
LAKE SUPERIOR

STATION/POSITION TIME  TEMP    WIND        PRES    WAVE
                       AIR SEA DIR/SP/G            HT/PER
                 (UTC) (F)     (DEG/KT/KT) (MB)    (FT/S)
W MID LAKE BUOY  1550   53 44  240/ 10/ 12 1006.9R   1
PORT WING        1600   72     250/  9/ 12 1008.5F
SAXON HARBOR     1640           CALM  /  7 1008.5S
$$

LMZ867-665-643>646-261800-
LAKE MICHIGAN

STATION/POSITION TIME  TEMP    WIND        PRES    WAVE
                       AIR SEA DIR/SP/G            HT/PER
                 (UTC) (F)     (DEG/KT/KT) (MB)    (FT/S)
N MID LAKE BUOY  1550   60 55  200/ 12/ 14 1007.7F   2/ 4
NORTHPORT PIER   1600   66     160/  5/  8 1008.5F
KEWAUNEE LAKESHO 1600   55     170/ 13/ 14 1010.2F
SHEBOYGAN LAKESH 1600   67     170/ 13/ 14 1010.1S
PORT WASHINGTON  1600   66     180/  4/  7 1011.5R
ATWATER BUOY     1600   63     170/  6     1012.2R
MILWAUKEE LAKESH 1600   63     150/  5/  6   N/A
S MID LAKE BUOY  1550   64 62  140/  6/  6 1010.8S   1
KENOSHA   LAKESH 1600   66      CALM  /  2 1011.5R
$$

TC  - TEMPERATURE IN CELSIUS
VSB - VISIBILITY IN STATUTE MILES
WCI - WIND CHILL INDEX
HX  - HEAT INDEX




USA.gov is the U.S. government's official web portal to all federal, state and local government web resources and services.